TimeCST,TemperatureF,Dew PointF,Humidity,Sea Level PressureIn,VisibilityMPH,Wind Direction,Wind SpeedMPH,Gust SpeedMPH,PrecipitationIn,Events,Conditions,WindDirDegrees,DateUTC
12:53 AM,45.0,42.1,90,30.36,10.0,NE,6.9,-,N/A,,Clear,40,2012-11-28 06:53:00
1:53 AM,45.0,42.1,90,30.35,10.0,NNE,6.9,-,N/A,,Clear,30,2012-11-28 07:53:00
2:53 AM,44.1,41.0,89,30.37,10.0,NE,8.1,-,N/A,,Clear,40,2012-11-28 08:53:00
3:53 AM,44.1,41.0,89,30.37,10.0,NNE,10.4,-,N/A,,Clear,30,2012-11-28 09:53:00
4:53 AM,43.0,39.9,89,30.38,10.0,NNE,8.1,-,N/A,,Clear,30,2012-11-28 10:53:00
5:53 AM,42.8,39.2,87,30.38,9.0,NNE,5.8,-,N/A,,Clear,30,2012-11-28 11:53:00
6:41 AM,41.0,39.2,93,30.40,7.0,NE,8.1,-,N/A,,Scattered Clouds,50,2012-11-28 12:41:00
6:50 AM,41.0,39.2,93,30.40,6.0,NE,8.1,-,N/A,,Mostly Cloudy,50,2012-11-28 12:50:00
6:53 AM,42.1,39.0,89,30.42,6.0,NE,8.1,-,N/A,,Mostly Cloudy,50,2012-11-28 12:53:00
7:27 AM,41.0,39.2,93,30.41,2.5,ENE,10.4,-,N/A,,Overcast,60,2012-11-28 13:27:00
7:42 AM,42.8,39.2,87,30.41,3.0,NE,8.1,-,N/A,,Overcast,50,2012-11-28 13:42:00
7:53 AM,42.1,39.9,92,30.44,3.0,ENE,10.4,-,N/A,,Overcast,60,2012-11-28 13:53:00
8:03 AM,42.8,41.0,93,30.42,2.5,ENE,9.2,-,N/A,,Overcast,60,2012-11-28 14:03:00
8:11 AM,42.8,41.0,93,30.42,3.0,NNE,9.2,-,N/A,,Overcast,30,2012-11-28 14:11:00
8:18 AM,42.8,39.2,87,30.43,2.5,NE,9.2,-,N/A,,Overcast,40,2012-11-28 14:18:00
8:53 AM,43.0,41.0,93,30.46,2.5,NNE,9.2,-,N/A,,Overcast,30,2012-11-28 14:53:00
9:02 AM,44.6,42.8,93,30.44,3.0,ENE,9.2,-,N/A,,Overcast,60,2012-11-28 15:02:00
9:35 AM,46.4,42.8,87,30.45,5.0,NNE,6.9,-,N/A,,Overcast,20,2012-11-28 15:35:00
9:53 AM,46.9,42.1,83,30.48,7.0,NE,8.1,-,N/A,,Scattered Clouds,40,2012-11-28 15:53:00
10:53 AM,52.0,43.0,71,30.47,10.0,ENE,9.2,-,N/A,,Clear,70,2012-11-28 16:53:00
11:53 AM,57.0,43.0,59,30.44,10.0,NNE,8.1,-,N/A,,Clear,30,2012-11-28 17:53:00
12:53 PM,59.0,42.1,53,30.40,10.0,ENE,6.9,-,N/A,,Clear,70,2012-11-28 18:53:00
1:53 PM,62.1,41.0,46,30.38,10.0,NE,10.4,-,N/A,,Clear,50,2012-11-28 19:53:00
2:53 PM,63.0,39.9,43,30.36,10.0,NE,6.9,-,N/A,,Clear,50,2012-11-28 20:53:00
3:53 PM,62.1,39.9,44,30.34,10.0,NE,6.9,-,N/A,,Clear,40,2012-11-28 21:53:00
4:53 PM,59.0,41.0,51,30.34,10.0,NE,6.9,-,N/A,,Clear,50,2012-11-28 22:53:00
5:53 PM,54.0,41.0,62,30.36,10.0,East,3.5,-,N/A,,Clear,80,2012-11-28 23:53:00
6:53 PM,51.1,41.0,68,30.38,10.0,ENE,3.5,-,N/A,,Clear,70,2012-11-29 00:53:00
7:53 PM,46.9,41.0,80,30.38,10.0,Calm,Calm,-,N/A,,Clear,0,2012-11-29 01:53:00
8:53 PM,45.0,39.9,82,30.38,10.0,Calm,Calm,-,N/A,,Clear,0,2012-11-29 02:53:00
9:53 PM,45.0,41.0,86,30.38,10.0,NE,3.5,-,N/A,,Clear,40,2012-11-29 03:53:00
10:53 PM,42.1,39.9,92,30.38,10.0,Calm,Calm,-,N/A,,Clear,0,2012-11-29 04:53:00
11:53 PM,42.1,39.0,89,30.37,10.0,ENE,3.5,-,N/A,,Clear,70,2012-11-29 05:53:00